Location: Ackerson Creek
(37.8210°N, 119.8757°W)
Time: 15:21:16
(UTC+00:00)

ARGOS - Pass Details

Date: 13 April 2024
Orbit: 818 x 834 km, 98.4° (Epoch: 23 May)

Event Time Altitude Azimuth Distance (km) Brightness Sun altitude
Rises 12:44:14 0° 18° (NNE) 3,367 6.9 -8.8°
Reaches altitude 10° 12:46:40 10° 22° (NNE) 2,428 6.2 -8.4°
Maximum altitude 12:51:55 55° 100° (E) 984 4.0 -7.4°
Drops below altitude 10° 12:57:08 10° 178° (S) 2,404 5.4 -6.4°
Sets 12:59:31 0° 182° (S) 3,332 6.1 -5.9°
